| time (UTC) | temp C | wind direction | speed KPH | gust KPH | rain 1hr cm | rain 24hr cm | rain mn cm | humidity % | barometer mb |
| 20260505041500 | 9 | 188 | 0.0 | 1.6 | 0.00 | 0.00 | 0.00 | 90 | 1010.5 |
| 20260505040000 | 10 | 172 | 0.0 | 0.0 | 0.00 | 0.00 | 0.00 | 89 | 1010.5 |
| 20260505034500 | 10 | 118 | 0.0 | 1.6 | 0.00 | 0.00 | 0.00 | 89 | 1010.4 |
| 20260505033000 | 10 | 127 | 1.6 | 3.2 | 0.00 | 0.00 | 0.00 | 88 | 1010.4 |
| 20260505031500 | 10 | 140 | 1.6 | 1.6 | 0.00 | 0.00 | 0.00 | 87 | 1010.5 |
| 20260505030000 | 10 | 176 | 1.6 | 1.6 | 0.00 | 0.00 | 0.00 | 87 | 1010.6 |
| 20260505024500 | 10 | 148 | 1.6 | 3.2 | 0.00 | 0.00 | 0.00 | 87 | 1010.6 |
| 20260505023000 | 10 | 0 | 0.0 | 1.6 | 0.00 | 0.00 | 0.00 | 87 | 1010.7 |
| 20260505021500 | 10 | 172 | 3.2 | 4.8 | 0.00 | 0.00 | 0.00 | 86 | 1010.8 |
| 20260505020000 | 10 | 187 | 3.2 | 4.8 | 0.00 | 0.00 | 0.00 | 85 | 1010.7 |
| 20260505014500 | 10 | 213 | 1.6 | 4.8 | 0.00 | 0.00 | 0.00 | 81 | 1010.7 |
| 20260505013000 | 10 | 242 | 1.6 | 4.8 | 0.00 | 0.00 | 0.00 | 80 | 1010.5 |
| 20260505011500 | 10 | 173 | 1.6 | 9.7 | 0.00 | 0.00 | 0.00 | 81 | 1010.4 |
| 20260505010000 | 10 | 225 | 3.2 | 6.4 | 0.00 | 0.00 | 0.00 | 81 | 1010.1 |
| 20260505004500 | 11 | 217 | 1.6 | 3.2 | 0.00 | 0.00 | 0.00 | 80 | 1009.9 |
| 20260505003000 | 11 | 175 | 4.8 | 6.4 | 0.00 | 0.00 | 0.00 | 75 | 1009.6 |
| 20260505001500 | 12 | 146 | 11.3 | 4.8 | 0.00 | 0.00 | 0.00 | 74 | 1009.3 |
| 20260505000000 | 12 | 225 | 3.2 | 11.3 | 0.00 | 0.00 | 0.00 | 72 | 1009.0 |
| 20260504234500 | 12 | 189 | 12.9 | 12.9 | 0.00 | 0.00 | 0.00 | 70 | 1008.9 |
| 20260504233000 | 12 | 202 | 8.0 | 11.3 | 0.00 | 0.00 | 0.00 | 68 | 1008.8 |
| 20260504231500 | 13 | 57 | 1.6 | 8.0 | 0.00 | 0.00 | 0.00 | 67 | 1008.6 |
| 20260504230000 | 13 | 189 | 8.0 | 8.0 | 0.00 | 0.00 | 0.00 | 65 | 1008.3 |
| 20260504224500 | 13 | 257 | 6.4 | 4.8 | 0.00 | 0.00 | 0.00 | 63 | 1008.4 |
| 20260504223000 | 13 | 163 | 4.8 | 6.4 | 0.00 | 0.00 | 0.00 | 67 | 1008.3 |
| 20260504221500 | 13 | 143 | 6.4 | 11.3 | 0.00 | 0.00 | 0.00 | 63 | 1008.1 |
| 20260504220000 | 14 | 171 | 3.2 | 8.0 | 0.00 | 0.00 | 0.00 | 61 | 1008.1 |
| 20260504214500 | 15 | 182 | 3.2 | 8.0 | 0.00 | 0.00 | 0.00 | 58 | 1008.0 |
| 20260504213000 | 15 | 177 | 6.4 | 12.9 | 0.00 | 0.00 | 0.00 | 60 | 1007.9 |
| 20260504211500 | 15 | 169 | 4.8 | 11.3 | 0.00 | 0.00 | 0.00 | 61 | 1007.9 |
| 20260504210000 | 15 | 198 | 14.5 | 9.7 | 0.00 | 0.00 | 0.00 | 59 | 1007.6 |
| 20260504204500 | 16 | 181 | 0.0 | 17.7 | 0.00 | 0.00 | 0.00 | 57 | 1007.6 |
| 20260504203000 | 16 | 147 | 4.8 | 9.7 | 0.00 | 0.00 | 0.00 | 59 | 1007.5 |
| 20260504201500 | 15 | 193 | 6.4 | 12.9 | 0.00 | 0.00 | 0.00 | 58 | 1007.6 |
| 20260504200000 | 16 | 176 | 11.3 | 19.3 | 0.00 | 0.00 | 0.00 | 57 | 1007.3 |
| 20260504194500 | 17 | 150 | 4.8 | 9.7 | 0.00 | 0.00 | 0.00 | 51 | 1007.1 |
| 20260504193000 | 17 | 183 | 3.2 | 9.7 | 0.00 | 0.00 | 0.00 | 47 | 1007.0 |
| 20260504191500 | 18 | 176 | 6.4 | 6.4 | 0.00 | 0.00 | 0.00 | 46 | 1007.0 |
| 20260504190000 | 18 | 202 | 11.3 | 8.0 | 0.00 | 0.00 | 0.00 | 44 | 1007.1 |
| 20260504184500 | 18 | 165 | 12.9 | 6.4 | 0.00 | 0.00 | 0.00 | 44 | 1006.9 |
| 20260504183000 | 18 | 212 | 8.0 | 16.1 | 0.00 | 0.00 | 0.00 | 44 | 1007.3 |
| 20260504181500 | 18 | 195 | 4.8 | 12.9 | 0.00 | 0.00 | 0.00 | 44 | 1007.2 |
| 20260504180000 | 18 | 172 | 9.7 | 8.0 | 0.00 | 0.00 | 0.00 | 45 | 1007.2 |
| 20260504174500 | 18 | 182 | 1.6 | 4.8 | 0.00 | 0.00 | 0.00 | 53 | 1007.3 |
| 20260504173000 | 20 | 176 | 8.0 | 11.3 | 0.00 | 0.00 | 0.00 | 39 | 1007.0 |
| 20260504171500 | 20 | 164 | 6.4 | 11.3 | 0.00 | 0.00 | 0.00 | 37 | 1007.0 |
| 20260504081500 | 7 | 0 | 0.0 | 0.0 | 0.00 | 0.00 | 0.00 | 72 | 1009.5 |
| 20260504050000 | 6 | 0 | 0.0 | 0.0 | 0.00 | 0.00 | 0.00 | 65 | 1009.6 |